Regional Weather Roundup
Issued by NWS

Home | Current Version | Previous Version | Graphics & Text | Print | Product List | Glossary On
Versions: 1 2 3 4 5 6 7 8 9 10 11 12 13 14 15 16 17 18 19 20 21 22 23 24 25 26 27 28 29 30 31 32 33 34 35 36 37 38 39 40 41 42 43 44 45 46 47 48 49 50
000
ASUS43 KLMK 061910
RWRKY
KENTUCKY REGIONAL WEATHER ROUNDUP
NATIONAL WEATHER SERVICE LOUISVILLE KY
300 PM EDT MON JUL 06 2015

NOTE "FAIR" INDICATES FEW OR NO CLOUDS BELOW 12,000 FEET
WITH NO SIGNIFICANT WEATHER AND/OR OBSTRUCTIONS TO VISIBILITY.

KYZ001>023-026-027-061>063-070>075-062000-
WESTERN AND SOUTH CENTRAL KENTUCKY

CITY           SKY/WX    TMP DP  RH WIND       PRES   REMARKS
PADUCAH        MOSUNNY   85  72  65 SW10G16   30.03F HX  91
HENDERSON      CLOUDY    84  72  65 S9G16     30.02F
OWENSBORO      MOSUNNY   87  74  65 S13       30.05F HX  95
HOPKINSVILLE   MOSUNNY   84  73  67 S10       30.08F HX  90
BOWLING GREEN  MOSUNNY   86  69  56 SW9       30.09F HX  90
GLASGOW        MOSUNNY   83  69  62 SW9       30.11S
$$

KYZ024-025-028>034-038-045-046-053-062000-
NORTH CENTRAL KENTUCKY

CITY           SKY/WX    TMP DP  RH WIND       PRES   REMARKS
LOUISVILLE/SDF MOSUNNY   87  68  52 S12       30.06F HX  90
LOUISVILLE/LOU MOSUNNY   86  67  52 MISG      30.08F
FORT KNOX      MOSUNNY   85  70  61 S9        30.07F HX  90
$$

KYZ035>037-039>044-047>052-055>060-089>105-062000-
NORTHEAST KENTUCKY

CITY           SKY/WX    TMP DP  RH WIND       PRES   REMARKS
LEXINGTON      MOSUNNY   83  68  60 SW6       30.10F
COVINGTON      SUNNY     83  66  56 VRB5      30.08F
FRANKFORT      PTSUNNY   82  68  62 SW9       30.08F
$$

KYZ054-064>069-076>088-106>120-062000-
SOUTHEAST KENTUCKY

CITY           SKY/WX    TMP DP  RH WIND       PRES   REMARKS
JACKSON        CLOUDY    76  67  73 CALM      30.14F
LONDON         MOSUNNY   82  63  52 SW8       30.13F
SOMERSET       SUNNY     81  64  57 W8G16     30.13F
MIDDLESBORO    PTSUNNY   83  67  57 NW8       30.13F
MONTICELLO     PTCLDY    84  71  65 SW9       30.15F
$$



USA.gov is the U.S. government's official web portal to all federal, state and local government web resources and services.